Location: Huppendorf
(49.9333°N, 11.1500°E)
Time: 10:51:44
(UTC+00:00)

STARLINK-1034 - Pass Details

Date: 27 February 2020
Orbit: 549 x 550 km, 53.0° (Epoch: 05 April)

Event Time Altitude Azimuth Distance (km) Brightness Sun altitude
Rises 19:07:22 0° 272° (W) 2,720 8.6 -22.2°
Reaches altitude 10° 19:09:38 10° 277° (W) 1,827 7.4 -22.6°
Maximum altitude 19:13:43 55° 356° (N) 665 4.0 -23.2°
Enters shadow 19:13:55 55° 9° (N) 670 4.0 -23.2°
